Time,TemperatureF,DewpointF,PressureIn,WindDirection,WindDirectionDegrees,WindSpeedMPH,WindSpeedGustMPH,Humidity,HourlyPrecipIn,Conditions,Clouds,dailyrainin,SoftwareType,DateUTC
2013-03-06 00:01:00,27.0,23.0,29.78,NNW,333,0.0,0.0,85,0.00,,,0.01,,2013-03-06 07:01:00,
2013-03-06 00:11:00,27.0,23.0,29.78,NNW,333,0.0,0.0,85,0.00,,,0.01,,2013-03-06 07:11:00,
2013-03-06 00:22:00,26.0,22.0,29.78,NNW,333,0.0,0.0,86,0.00,,,0.01,,2013-03-06 07:22:00,
2013-03-06 00:31:00,26.0,22.0,29.78,NNW,333,0.0,0.0,86,0.00,,,0.01,,2013-03-06 07:31:00,
2013-03-06 00:42:00,26.0,22.0,29.78,NNW,333,0.0,0.0,86,0.00,,,0.01,,2013-03-06 07:42:00,
2013-03-06 00:52:00,26.0,22.0,29.76,NNW,333,0.0,0.0,86,0.00,,,0.01,,2013-03-06 07:52:00,
2013-03-06 01:01:00,26.0,22.0,29.76,NNW,333,0.0,0.0,86,0.00,,,0.01,,2013-03-06 08:01:00,
2013-03-06 01:11:00,26.0,22.0,29.76,NNW,333,0.0,0.0,86,0.00,,,0.01,,2013-03-06 08:11:00,
2013-03-06 01:21:00,24.0,20.0,29.76,NNW,333,0.0,0.0,86,0.00,,,0.01,,2013-03-06 08:21:00,
2013-03-06 01:31:00,24.0,20.0,29.76,NNW,333,0.0,0.0,86,0.00,,,0.01,,2013-03-06 08:31:00,
2013-03-06 01:42:00,24.0,20.0,29.76,NNW,333,0.0,0.0,86,0.00,,,0.01,,2013-03-06 08:42:00,
2013-03-06 01:52:00,23.0,20.0,29.76,NNW,333,0.0,0.0,87,0.00,,,0.01,,2013-03-06 08:52:00,
2013-03-06 02:01:00,23.0,20.0,29.76,NNW,333,0.0,0.0,87,0.00,,,0.01,,2013-03-06 09:01:00,
2013-03-06 02:12:00,23.0,20.0,29.76,NNW,333,0.0,0.0,87,0.00,,,0.01,,2013-03-06 09:12:00,
2013-03-06 02:21:00,22.0,18.0,29.76,NNW,333,0.0,0.0,86,0.00,,,0.01,,2013-03-06 09:21:00,
2013-03-06 02:31:00,22.0,18.0,29.76,NNW,333,0.0,0.0,86,0.00,,,0.01,,2013-03-06 09:31:00,
2013-03-06 02:42:00,22.0,18.0,29.76,NNW,333,0.0,0.0,86,0.00,,,0.01,,2013-03-06 09:42:00,
2013-03-06 02:52:00,23.0,20.0,29.75,NNW,333,0.0,0.0,87,0.00,,,0.01,,2013-03-06 09:52:00,
2013-03-06 03:01:00,23.0,20.0,29.75,NNW,333,0.0,0.0,87,0.00,,,0.01,,2013-03-06 10:01:00,
2013-03-06 03:11:00,23.0,20.0,29.75,NNW,333,0.0,0.0,87,0.00,,,0.01,,2013-03-06 10:11:00,
2013-03-06 03:21:00,23.0,20.0,29.73,NNW,333,0.0,0.0,87,0.00,,,0.01,,2013-03-06 10:21:00,
2013-03-06 03:31:00,23.0,20.0,29.73,NNW,333,0.0,0.0,87,0.00,,,0.01,,2013-03-06 10:31:00,
2013-03-06 03:42:00,23.0,20.0,29.73,NNW,333,0.0,0.0,87,0.00,,,0.01,,2013-03-06 10:42:00,
2013-03-06 03:52:00,23.0,19.0,29.71,NNW,333,0.0,0.0,86,0.00,,,0.01,,2013-03-06 10:52:00,
2013-03-06 04:01:00,23.0,19.0,29.71,NNW,333,0.0,0.0,86,0.00,,,0.01,,2013-03-06 11:01:00,
2013-03-06 04:11:00,23.0,19.0,29.71,NNW,333,0.0,0.0,86,0.00,,,0.01,,2013-03-06 11:11:00,
2013-03-06 04:22:00,23.0,20.0,29.70,NNW,333,0.0,0.0,87,0.00,,,0.01,,2013-03-06 11:22:00,
2013-03-06 04:31:00,23.0,20.0,29.70,NNW,333,0.0,0.0,87,0.00,,,0.01,,2013-03-06 11:31:00,
2013-03-06 04:42:00,23.0,20.0,29.70,NNW,333,0.0,0.0,87,0.00,,,0.01,,2013-03-06 11:42:00,
2013-03-06 04:52:00,23.0,20.0,29.69,NNW,333,0.0,0.0,87,0.00,,,0.01,,2013-03-06 11:52:00,
2013-03-06 05:01:00,23.0,20.0,29.69,NNW,333,0.0,0.0,87,0.00,,,0.01,,2013-03-06 12:01:00,
2013-03-06 05:11:00,23.0,20.0,29.69,NNW,333,0.0,0.0,87,0.00,,,0.01,,2013-03-06 12:11:00,
2013-03-06 05:21:00,23.0,20.0,29.67,NNW,333,0.0,0.0,87,0.00,,,0.01,,2013-03-06 12:21:00,
2013-03-06 05:32:00,23.0,20.0,29.67,NNW,333,0.0,0.0,87,0.00,,,0.01,,2013-03-06 12:32:00,
2013-03-06 05:42:00,23.0,20.0,29.67,NNW,333,0.0,0.0,87,0.00,,,0.01,,2013-03-06 12:42:00,
2013-03-06 05:52:00,23.0,20.0,29.67,NNW,333,0.0,0.0,87,0.00,,,0.01,,2013-03-06 12:52:00,
2013-03-06 06:01:00,23.0,20.0,29.67,NNW,333,0.0,0.0,87,0.00,,,0.01,,2013-03-06 13:01:00,
2013-03-06 06:11:00,23.0,20.0,29.67,NNW,333,0.0,0.0,87,0.00,,,0.01,,2013-03-06 13:11:00,
2013-03-06 06:21:00,22.0,19.0,29.67,NNW,333,0.0,0.0,87,0.00,,,0.01,,2013-03-06 13:21:00,
2013-03-06 06:31:00,22.0,19.0,29.67,NNW,333,0.0,0.0,87,0.00,,,0.01,,2013-03-06 13:31:00,
2013-03-06 06:42:00,22.0,19.0,29.67,NNW,333,0.0,0.0,87,0.00,,,0.01,,2013-03-06 13:42:00,
2013-03-06 06:52:00,23.0,20.0,29.66,NNW,333,0.0,0.0,87,0.00,,,0.01,,2013-03-06 13:52:00,
2013-03-06 07:01:00,23.0,20.0,29.66,NNW,333,0.0,0.0,87,0.00,,,0.01,,2013-03-06 14:01:00,
2013-03-06 07:11:00,23.0,20.0,29.66,NNW,333,0.0,0.0,87,0.00,,,0.01,,2013-03-06 14:11:00,
2013-03-06 07:21:00,22.0,19.0,29.62,NNW,333,0.0,0.0,87,0.00,,,0.01,,2013-03-06 14:21:00,
2013-03-06 07:31:00,22.0,19.0,29.62,NNW,333,0.0,0.0,87,0.00,,,0.01,,2013-03-06 14:31:00,
2013-03-06 07:42:00,22.0,19.0,29.62,NNW,333,0.0,0.0,87,0.00,,,0.01,,2013-03-06 14:42:00,
2013-03-06 07:52:00,22.0,19.0,29.62,NNW,333,0.0,0.0,87,0.00,,,0.01,,2013-03-06 14:52:00,
2013-03-06 08:01:00,22.0,19.0,29.62,NNW,333,0.0,0.0,87,0.00,,,0.01,,2013-03-06 15:01:00,
2013-03-06 08:11:00,22.0,19.0,29.62,NNW,333,0.0,0.0,87,0.00,,,0.01,,2013-03-06 15:11:00,
2013-03-06 08:21:00,22.0,19.0,29.61,NNW,333,0.0,0.0,87,0.00,,,0.01,,2013-03-06 15:21:00,
2013-03-06 08:32:00,22.0,19.0,29.61,NNW,333,0.0,0.0,87,0.00,,,0.01,,2013-03-06 15:32:00,
2013-03-06 08:42:00,22.0,19.0,29.61,NNW,333,0.0,0.0,87,0.00,,,0.01,,2013-03-06 15:42:00,
2013-03-06 08:52:00,24.0,20.0,29.60,NNW,333,0.0,0.0,86,0.00,,,0.01,,2013-03-06 15:52:00,
2013-03-06 09:01:00,24.0,20.0,29.60,NNW,333,0.0,0.0,86,0.00,,,0.01,,2013-03-06 16:01:00,
2013-03-06 09:11:00,24.0,20.0,29.60,NNW,333,0.0,0.0,86,0.00,,,0.01,,2013-03-06 16:11:00,
2013-03-06 09:21:00,25.0,21.0,29.63,NNW,333,0.0,0.0,84,0.00,,,0.01,,2013-03-06 16:21:00,
2013-03-06 09:32:00,25.0,21.0,29.63,NNW,333,0.0,0.0,84,0.00,,,0.01,,2013-03-06 16:32:00,
2013-03-06 09:42:00,25.0,21.0,29.63,NNW,333,0.0,0.0,84,0.00,,,0.01,,2013-03-06 16:42:00,
2013-03-06 09:52:00,27.0,23.0,29.62,NNW,333,0.0,0.0,84,0.00,,,0.01,,2013-03-06 16:52:00,
2013-03-06 10:01:00,27.0,23.0,29.62,NNW,333,0.0,0.0,84,0.00,,,0.01,,2013-03-06 17:01:00,
2013-03-06 10:11:00,27.0,23.0,29.62,NNW,333,0.0,0.0,84,0.00,,,0.01,,2013-03-06 17:11:00,
2013-03-06 10:21:00,28.0,23.0,29.61,NNW,333,0.0,0.0,82,0.00,,,0.01,,2013-03-06 17:21:00,
2013-03-06 10:31:00,28.0,23.0,29.61,NNW,333,0.0,0.0,82,0.00,,,0.01,,2013-03-06 17:31:00,
2013-03-06 10:42:00,28.0,23.0,29.61,NNW,333,0.0,0.0,82,0.00,,,0.01,,2013-03-06 17:42:00,
2013-03-06 10:52:00,28.0,24.0,29.60,NNW,333,0.0,0.0,85,0.00,,,0.01,,2013-03-06 17:52:00,
2013-03-06 11:01:00,28.0,24.0,29.60,NNW,333,0.0,0.0,85,0.00,,,0.01,,2013-03-06 18:01:00,
2013-03-06 11:28:00,28.0,25.0,29.59,NNW,333,0.0,0.0,87,0.00,,,0.01,,2013-03-06 18:28:00,
2013-03-06 11:42:00,28.0,25.0,29.59,NNW,333,0.0,0.0,87,0.00,,,0.01,,2013-03-06 18:42:00,
2013-03-06 11:52:00,29.0,25.0,29.59,West,267,0.0,2.0,85,0.00,,,0.00,,2013-03-06 18:52:00,
2013-03-06 12:01:00,29.0,25.0,29.59,West,267,0.0,2.0,85,0.00,,,0.00,,2013-03-06 19:01:00,
2013-03-06 12:11:00,29.0,25.0,29.59,West,267,0.0,2.0,85,0.00,,,0.00,,2013-03-06 19:11:00,
2013-03-06 12:21:00,30.0,25.0,29.57,South,176,0.0,2.0,83,0.00,,,0.00,,2013-03-06 19:21:00,
2013-03-06 12:31:00,30.0,25.0,29.57,South,176,0.0,2.0,83,0.00,,,0.00,,2013-03-06 19:31:00,
2013-03-06 12:43:00,30.0,25.0,29.57,South,176,0.0,2.0,83,0.00,,,0.00,,2013-03-06 19:43:00,
2013-03-06 12:52:00,31.0,26.0,29.57,SSW,198,0.0,3.0,83,0.00,,,0.00,,2013-03-06 19:52:00,
2013-03-06 13:01:00,31.0,26.0,29.57,SSW,198,0.0,3.0,83,0.00,,,0.00,,2013-03-06 20:01:00,
2013-03-06 13:11:00,31.0,26.0,29.57,SSW,198,0.0,3.0,83,0.00,,,0.00,,2013-03-06 20:11:00,
2013-03-06 13:21:00,30.0,26.0,29.57,NW,309,0.0,2.0,84,0.00,,,0.00,,2013-03-06 20:21:00,
2013-03-06 13:31:00,30.0,26.0,29.57,NW,309,0.0,2.0,84,0.00,,,0.00,,2013-03-06 20:31:00,
2013-03-06 13:42:00,30.0,26.0,29.57,NW,309,0.0,2.0,84,0.00,,,0.00,,2013-03-06 20:42:00,
2013-03-06 13:52:00,32.0,27.0,29.57,NW,317,1.0,2.0,81,0.02,,,0.02,,2013-03-06 20:52:00,
2013-03-06 14:01:00,32.0,27.0,29.57,NW,317,1.0,2.0,81,0.02,,,0.02,,2013-03-06 21:01:00,
2013-03-06 14:11:00,32.0,27.0,29.57,NW,317,1.0,2.0,81,0.02,,,0.02,,2013-03-06 21:11:00,
2013-03-06 14:21:00,32.0,27.0,29.55,NNW,335,0.0,3.0,82,0.04,,,0.04,,2013-03-06 21:21:00,
2013-03-06 14:31:00,32.0,27.0,29.55,NNW,335,0.0,3.0,82,0.04,,,0.04,,2013-03-06 21:31:00,
2013-03-06 14:42:00,32.0,27.0,29.55,NNW,335,0.0,3.0,82,0.04,,,0.04,,2013-03-06 21:42:00,
2013-03-06 14:52:00,33.0,28.0,29.54,NNW,348,1.0,3.0,82,0.04,,,0.06,,2013-03-06 21:52:00,
2013-03-06 15:01:00,33.0,28.0,29.54,NNW,348,1.0,3.0,82,0.04,,,0.06,,2013-03-06 22:01:00,
2013-03-06 15:11:00,33.0,28.0,29.54,NNW,348,1.0,3.0,82,0.04,,,0.06,,2013-03-06 22:11:00,
2013-03-06 15:21:00,34.0,29.0,29.54,NNW,332,0.0,2.0,82,0.05,,,0.09,,2013-03-06 22:21:00,
2013-03-06 15:31:00,34.0,29.0,29.54,NNW,332,0.0,2.0,82,0.05,,,0.09,,2013-03-06 22:31:00,
2013-03-06 15:42:00,34.0,29.0,29.54,NNW,332,0.0,2.0,82,0.05,,,0.09,,2013-03-06 22:42:00,
2013-03-06 15:52:00,34.0,29.0,29.55,NW,323,1.0,3.0,82,0.04,,,0.10,,2013-03-06 22:52:00,
2013-03-06 16:01:00,34.0,29.0,29.55,NW,323,1.0,3.0,82,0.04,,,0.10,,2013-03-06 23:01:00,
2013-03-06 16:11:00,34.0,29.0,29.55,NW,323,1.0,3.0,82,0.04,,,0.10,,2013-03-06 23:11:00,
2013-03-06 16:21:00,34.0,29.0,29.54,West,265,0.0,2.0,83,0.02,,,0.11,,2013-03-06 23:21:00,
2013-03-06 16:31:00,34.0,29.0,29.54,West,265,0.0,2.0,83,0.02,,,0.11,,2013-03-06 23:31:00,
2013-03-06 16:42:00,34.0,29.0,29.54,West,265,0.0,2.0,83,0.02,,,0.11,,2013-03-06 23:42:00,
2013-03-06 16:52:00,33.0,28.0,29.54,NNW,332,0.0,3.0,83,0.02,,,0.12,,2013-03-06 23:52:00,
2013-03-06 17:01:00,33.0,28.0,29.54,NNW,332,0.0,3.0,83,0.02,,,0.12,,2013-03-07 00:01:00,
2013-03-06 17:11:00,33.0,28.0,29.54,NNW,332,0.0,3.0,83,0.02,,,0.12,,2013-03-07 00:11:00,
2013-03-06 17:21:00,32.0,28.0,29.55,NNW,332,1.0,2.0,86,0.01,,,0.12,,2013-03-07 00:21:00,
2013-03-06 17:31:00,32.0,28.0,29.55,NNW,332,1.0,2.0,86,0.01,,,0.12,,2013-03-07 00:31:00,
2013-03-06 17:42:00,32.0,28.0,29.55,NNW,332,1.0,2.0,86,0.01,,,0.12,,2013-03-07 00:42:00,
2013-03-06 17:52:00,32.0,29.0,29.55,NW,316,0.0,1.0,87,0.00,,,0.12,,2013-03-07 00:52:00,
2013-03-06 18:01:00,32.0,29.0,29.55,NW,316,0.0,1.0,87,0.00,,,0.12,,2013-03-07 01:01:00,
2013-03-06 18:11:00,32.0,29.0,29.55,NW,316,0.0,1.0,87,0.00,,,0.12,,2013-03-07 01:11:00,
2013-03-06 18:21:00,31.0,28.0,29.56,NW,320,0.0,0.0,88,0.00,,,0.12,,2013-03-07 01:21:00,
2013-03-06 18:31:00,31.0,28.0,29.56,NW,320,0.0,0.0,88,0.00,,,0.12,,2013-03-07 01:31:00,
2013-03-06 18:42:00,31.0,28.0,29.56,NW,320,0.0,0.0,88,0.00,,,0.12,,2013-03-07 01:42:00,
2013-03-06 18:52:00,31.0,28.0,29.56,NW,320,0.0,0.0,89,0.00,,,0.12,,2013-03-07 01:52:00,
2013-03-06 19:01:00,31.0,28.0,29.56,NW,320,0.0,0.0,89,0.00,,,0.12,,2013-03-07 02:01:00,
2013-03-06 19:11:00,31.0,28.0,29.56,NW,320,0.0,0.0,89,0.00,,,0.12,,2013-03-07 02:11:00,
2013-03-06 19:21:00,31.0,28.0,29.57,NW,320,0.0,0.0,89,0.00,,,0.12,,2013-03-07 02:21:00,
2013-03-06 19:31:00,31.0,28.0,29.57,NW,320,0.0,0.0,89,0.00,,,0.12,,2013-03-07 02:31:00,
2013-03-06 19:42:00,31.0,28.0,29.57,NW,320,0.0,0.0,89,0.00,,,0.12,,2013-03-07 02:42:00,
2013-03-06 19:52:00,31.0,28.0,29.57,NW,320,0.0,0.0,89,0.00,,,0.12,,2013-03-07 02:52:00,
2013-03-06 20:01:00,31.0,28.0,29.57,NW,320,0.0,0.0,90,0.00,,,0.12,,2013-03-07 03:01:00,
2013-03-06 20:11:00,30.0,28.0,29.58,NW,320,0.0,0.0,91,0.00,,,0.12,,2013-03-07 03:11:00,
2013-03-06 20:21:00,30.0,28.0,29.58,NW,320,0.0,0.0,91,0.00,,,0.12,,2013-03-07 03:21:00,
2013-03-06 20:31:00,30.0,28.0,29.58,NW,320,0.0,0.0,91,0.00,,,0.12,,2013-03-07 03:31:00,
2013-03-06 20:42:00,30.0,28.0,29.58,NW,320,0.0,0.0,91,0.00,,,0.12,,2013-03-07 03:42:00,
2013-03-06 20:52:00,30.0,28.0,29.57,NW,320,0.0,0.0,91,0.00,,,0.12,,2013-03-07 03:52:00,
2013-03-06 21:01:00,30.0,28.0,29.57,NW,320,0.0,0.0,91,0.00,,,0.12,,2013-03-07 04:01:00,
2013-03-06 21:11:00,30.0,28.0,29.57,NW,320,0.0,0.0,91,0.00,,,0.12,,2013-03-07 04:11:00,
2013-03-06 21:21:00,30.0,28.0,29.58,NW,320,0.0,0.0,91,0.00,,,0.12,,2013-03-07 04:21:00,
2013-03-06 21:31:00,30.0,28.0,29.58,NW,320,0.0,0.0,91,0.00,,,0.12,,2013-03-07 04:31:00,
2013-03-06 21:42:00,30.0,28.0,29.58,NW,320,0.0,0.0,91,0.00,,,0.12,,2013-03-07 04:42:00,
2013-03-06 21:52:00,31.0,29.0,29.59,NW,320,0.0,0.0,91,0.00,,,0.12,,2013-03-07 04:52:00,
2013-03-06 22:01:00,31.0,29.0,29.59,NW,320,0.0,0.0,91,0.00,,,0.12,,2013-03-07 05:01:00,
2013-03-06 22:12:00,31.0,29.0,29.59,NW,320,0.0,0.0,91,0.00,,,0.12,,2013-03-07 05:12:00,
2013-03-06 22:22:00,30.0,28.0,29.60,NW,320,0.0,0.0,91,0.00,,,0.12,,2013-03-07 05:22:00,
2013-03-06 22:31:00,30.0,28.0,29.60,NW,320,0.0,0.0,91,0.00,,,0.12,,2013-03-07 05:31:00,
2013-03-06 22:42:00,30.0,28.0,29.60,NW,320,0.0,0.0,91,0.00,,,0.12,,2013-03-07 05:42:00,
2013-03-06 22:52:00,30.0,28.0,29.61,NW,320,0.0,0.0,91,0.00,,,0.12,,2013-03-07 05:52:00,
2013-03-06 23:01:00,30.0,28.0,29.61,NW,320,0.0,0.0,91,0.00,,,0.12,,2013-03-07 06:01:00,
2013-03-06 23:11:00,30.0,28.0,29.61,NW,320,0.0,0.0,91,0.00,,,0.12,,2013-03-07 06:11:00,
2013-03-06 23:21:00,29.0,27.0,29.61,NW,320,0.0,0.0,91,0.00,,,0.12,,2013-03-07 06:21:00,
2013-03-06 23:31:00,29.0,27.0,29.61,NW,320,0.0,0.0,91,0.00,,,0.12,,2013-03-07 06:31:00,
2013-03-06 23:42:00,30.0,28.0,29.62,NW,320,0.0,0.0,92,0.00,,,0.12,,2013-03-07 06:42:00,
2013-03-06 23:52:00,30.0,28.0,29.62,NW,320,0.0,0.0,92,0.00,,,0.12,,2013-03-07 06:52:00,